Location: Lugano
(46.0000°N, 8.9670°E)
Time: 16:48:39
(UTC+02:00)

Envisat - Pass Details

Date: 17 March 2026
Orbit: 761 x 762 km, 98.4° (Epoch: 19 April)

Event Time Altitude Azimuth Distance (km) Brightness Sun altitude
Rises 04:07:07 0° 5° (N) 3,236 6.7 -25.4°
Reaches altitude 10° 04:09:39 10° 355° (N) 2,305 5.7 -25.0°
Enters shadow 04:12:49 27° 321° (NW) 1,432 4.2 -24.5°
